Ionia, MI

8:19 PM EST on November 19, 2019 (GMT -0500)
Ionia

Weather History for KY70 - September, 2019

Change the Weather History Date:

Thursday, September 19, 2019

  Actual Average (WUND) Record (WUND)
Temperature  
Mean Temperature 69 °F -  
Max Temperature 82 °F - - (-1)
Min Temperature 56 °F - - (-1)
Cooling Degree Days 4    
Growing Degree Days 19 (Base 50)    
Moisture  
Dew Point 54 °F    
Average Humidity 64    
Maximum Humidity 90    
Minimum Humidity 29    
Precipitation  
Precipitation 0.00 in - - ()
Sea Level Pressure  
Sea Level Pressure 30.12 in    
Wind  
Wind Speed 5 mph ()    
Max Wind Speed 9 mph    
Max Gust Speed -    
Visibility 10.0 miles    
Events      
Averages and records for this station are not official NWS values.
T = Trace of Precipitation, MM = Missing Value Source: Averaged Metar Reports

Daily Weather History Graph

Daily Weather History Graph

Search for Another Location

Airport or City:

Astronomy

Sep. 19, 2019 Rise Set
Actual Time 7:24 AM EDT 7:43 PM EDT
Civil Twilight 6:55 AM EDT 8:11 PM EDT
Nautical Twilight 6:22 AM EDT 8:44 PM EDT
Astronomical Twilight 5:47 AM EDT 9:19 PM EDT
Moon 10:44 PM EDT (9/19) 12:33 PM EDT (9/19)
Length of Visible Light 13h 16m
Length of Day
12h 19m
Waning Gibbous, 74% of the Moon is Illuminated
Sep 19
Waning Gibbous
Sep 21
Last Quarter
Sep 28
New
Oct 5
First Quarter
Oct 13
Full

Hourly Weather History & Observations

Time (EDT) Temp. Dew Point Humidity Pressure Visibility Wind Dir Wind Speed Gust Speed Precip Events Conditions
12:16 AM 62.8 °F 52.0 °F 68% 30.14 in 10.0 mi SE 9.2 mph - N/A   Clear
12:35 AM 61.7 °F 52.2 °F 71% 30.15 in 10.0 mi SE 6.9 mph - N/A   Clear
12:55 AM 61.2 °F 52.5 °F 73% 30.14 in 10.0 mi SE 8.1 mph - N/A   Clear
12:56 AM 61.2 °F 52.5 °F 73% 30.14 in 10.0 mi SE 8.1 mph - N/A   Clear
1:19 AM 59.9 °F 53.1 °F 78% 30.15 in 10.0 mi SE 6.9 mph - N/A   Clear
1:37 AM 60.1 °F 53.6 °F 79% 30.15 in 10.0 mi ESE 8.1 mph - N/A   Clear
1:55 AM 60.4 °F 54.1 °F 80% 30.15 in 10.0 mi SE 8.1 mph - N/A   Clear
2:15 AM 59.9 °F 54.9 °F 83% 30.15 in 10.0 mi ESE 5.8 mph - N/A   Clear
2:35 AM 59.9 °F 55.4 °F 85% 30.15 in 10.0 mi SE 6.9 mph - N/A   Clear
2:58 AM 59.9 °F 56.3 °F 88% 30.14 in 10.0 mi SE 8.1 mph - N/A   Clear
3:16 AM 59.9 °F 56.5 °F 88% 30.14 in 10.0 mi SE 9.2 mph - N/A   Clear
3:35 AM 60.8 °F 57.2 °F 88% 30.14 in 10.0 mi SSE 8.1 mph - N/A   Clear
3:36 AM 60.8 °F 57.2 °F 88% 30.14 in 10.0 mi SSE 6.9 mph - N/A   Clear
3:55 AM 61.9 °F 57.2 °F 85% 30.14 in 10.0 mi SSE 8.1 mph - N/A   Clear
4:19 AM 61.7 °F 56.8 °F 84% 30.14 in 10.0 mi SE 8.1 mph - N/A   Clear
4:36 AM 62.6 °F 56.3 °F 80% 30.15 in 10.0 mi South 4.6 mph - N/A   Clear
4:55 AM 62.6 °F 54.9 °F 76% 30.15 in 10.0 mi Calm Calm - N/A   Clear
4:56 AM 62.4 °F 54.9 °F 76% 30.15 in 10.0 mi Calm Calm - N/A   Clear
5:15 AM 62.4 °F 54.0 °F 74% 30.14 in 10.0 mi South 3.5 mph - N/A   Clear
5:35 AM 60.6 °F 54.0 °F 79% 30.14 in 10.0 mi South 3.5 mph - N/A   Clear
5:58 AM 57.4 °F 54.3 °F 90% 30.14 in 10.0 mi Calm Calm - N/A   Clear
6:16 AM 57.2 °F 53.8 °F 88% 30.13 in 10.0 mi ESE 5.8 mph - N/A   Clear
6:35 AM 57.4 °F 53.6 °F 87% 30.13 in 10.0 mi ESE 6.9 mph - N/A   Clear
6:36 AM 57.4 °F 53.6 °F 87% 30.13 in 10.0 mi ESE 6.9 mph - N/A   Clear
6:55 AM 58.1 °F 53.6 °F 85% 30.13 in 10.0 mi ESE 9.2 mph - N/A   Clear
6:56 AM 58.1 °F 53.6 °F 85% 30.13 in 10.0 mi ESE 9.2 mph - N/A   Clear
7:19 AM 56.5 °F 52.9 °F 88% 30.13 in 10.0 mi ESE 5.8 mph - N/A   Clear
7:37 AM 57.2 °F 53.1 °F 86% 30.14 in 10.0 mi ESE 6.9 mph - N/A   Clear
7:55 AM 59.0 °F 53.8 °F 83% 30.15 in 10.0 mi ESE 5.8 mph - N/A   Clear
8:15 AM 59.0 °F 54.5 °F 85% 30.15 in 10.0 mi ESE 3.5 mph - N/A   Clear
8:35 AM 59.2 °F 54.7 °F 85% 30.16 in 10.0 mi Calm Calm - N/A   Clear
8:58 AM 59.9 °F 54.9 °F 83% 30.16 in 10.0 mi Calm Calm - N/A   Clear
9:16 AM 61.2 °F 54.9 °F 80% 30.16 in 10.0 mi Calm Calm - N/A   Clear
9:35 AM 63.7 °F 54.3 °F 72% 30.16 in 10.0 mi SE 4.6 mph - N/A   Clear
9:36 AM 63.7 °F 54.1 °F 71% 30.16 in 10.0 mi SE 6.9 mph - N/A   Clear
9:55 AM 65.5 °F 52.9 °F 64% 30.16 in 10.0 mi SSE 6.9 mph - N/A   Clear
9:56 AM 65.5 °F 52.7 °F 63% 30.16 in 10.0 mi SSE 6.9 mph - N/A   Clear
10:19 AM 66.2 °F 52.3 °F 61% 30.16 in 10.0 mi SE 6.9 mph - N/A   Clear
10:37 AM 67.5 °F 53.4 °F 61% 30.15 in 10.0 mi SE 5.8 mph - N/A   Clear
10:55 AM 69.4 °F 53.2 °F 56% 30.16 in 10.0 mi SSE 5.8 mph - N/A   Clear
11:15 AM 71.2 °F 51.8 °F 50% 30.16 in 10.0 mi SSE 5.8 mph - N/A   Clear
11:35 AM 72.5 °F 51.4 °F 47% 30.16 in 10.0 mi SSE 4.6 mph - N/A   Clear
11:58 AM 73.8 °F 52.3 °F 47% 30.15 in 10.0 mi SSE 3.5 mph - N/A   Clear
12:16 PM 74.7 °F 52.7 °F 46% 30.15 in 10.0 mi Calm Calm - N/A   Clear
12:35 PM 75.9 °F 51.8 °F 43% 30.14 in 10.0 mi SSE 3.5 mph - N/A   Clear
12:55 PM 77.2 °F 54.9 °F 46% 30.13 in 10.0 mi SE 6.9 mph - N/A   Clear
12:56 PM 77.4 °F 54.7 °F 45% 30.13 in 10.0 mi SSE 4.6 mph - N/A   Clear
1:19 PM 78.1 °F 54.7 °F 44% 30.13 in 10.0 mi SE 4.6 mph - N/A   Clear
1:37 PM 79.3 °F 49.5 °F 35% 30.12 in 10.0 mi South 4.6 mph - N/A   Clear
1:55 PM 79.9 °F 49.6 °F 35% 30.12 in 10.0 mi South 3.5 mph - N/A   Clear
2:15 PM 80.1 °F 50.7 °F 36% 30.12 in 10.0 mi Calm Calm - N/A   Clear
2:35 PM 80.6 °F 50.7 °F 35% 30.12 in 10.0 mi South 4.6 mph - N/A   Clear
2:58 PM 81.1 °F 50.0 °F 34% 30.11 in 10.0 mi SSW 3.5 mph - N/A   Clear
3:16 PM 81.0 °F 49.8 °F 34% 30.11 in 10.0 mi Calm Calm - N/A   Clear
3:35 PM 82.2 °F 47.7 °F 30% 30.10 in 10.0 mi Calm Calm - N/A   Clear
3:36 PM 82.0 °F 47.1 °F 29% 30.10 in 10.0 mi South 3.5 mph - N/A   Clear
3:55 PM 81.7 °F 48.4 °F 31% 30.10 in 10.0 mi South 3.5 mph - N/A   Clear
4:19 PM 81.9 °F 48.6 °F 31% 30.09 in 10.0 mi Calm Calm - N/A   Clear
4:37 PM 81.0 °F 51.1 °F 35% 30.09 in 10.0 mi ESE 3.5 mph - N/A   Clear
4:55 PM 80.4 °F 47.8 °F 32% 30.08 in 10.0 mi Calm Calm - N/A   Clear
4:56 PM 80.6 °F 48.0 °F 32% 30.08 in 10.0 mi Calm Calm - N/A   Clear
5:15 PM 81.0 °F 48.6 °F 32% 30.09 in 10.0 mi SE 3.5 mph - N/A   Clear
5:16 PM 81.0 °F 48.6 °F 32% 30.09 in 10.0 mi SE 3.5 mph - N/A   Clear
5:35 PM 79.9 °F 52.2 °F 38% 30.09 in 10.0 mi ESE 4.6 mph - N/A   Clear
5:58 PM 77.9 °F 55.0 °F 45% 30.09 in 10.0 mi ESE 3.5 mph - N/A   Clear
6:16 PM 76.8 °F 56.5 °F 49% 30.09 in 10.0 mi SE 4.6 mph - N/A   Clear
6:35 PM 78.1 °F 55.8 °F 46% 30.09 in 10.0 mi SE 4.6 mph - N/A   Clear
6:36 PM 78.1 °F 55.9 °F 46% 30.09 in 10.0 mi SE 4.6 mph - N/A   Clear
6:55 PM 77.5 °F 57.4 °F 50% 30.09 in 10.0 mi SE 3.5 mph - N/A   Clear
6:56 PM 77.5 °F 57.6 °F 50% 30.09 in 10.0 mi SE 3.5 mph - N/A   Clear
7:18 PM 75.2 °F 59.9 °F 59% 30.09 in 10.0 mi ESE 4.6 mph - N/A   Clear
7:37 PM 72.5 °F 59.7 °F 64% 30.08 in 10.0 mi ESE 3.5 mph - N/A   Clear
7:55 PM 71.1 °F 59.5 °F 67% 30.09 in 10.0 mi SE 4.6 mph - N/A   Clear
8:15 PM 68.0 °F 60.1 °F 76% 30.09 in 10.0 mi SE 3.5 mph - N/A   Clear
8:16 PM 68.0 °F 60.1 °F 76% 30.09 in 10.0 mi SE 3.5 mph - N/A   Clear
8:35 PM 70.0 °F 58.1 °F 66% 30.09 in 10.0 mi SE 4.6 mph - N/A   Clear
8:58 PM 69.1 °F 57.0 °F 65% 30.10 in 10.0 mi SE 4.6 mph - N/A   Clear
9:16 PM 65.1 °F 57.6 °F 76% 30.10 in 10.0 mi SE 5.8 mph - N/A   Clear
9:35 PM 67.5 °F 56.7 °F 68% 30.11 in 10.0 mi SSE 6.9 mph - N/A   Clear
9:36 PM 67.5 °F 56.7 °F 68% 30.11 in 10.0 mi SSE 6.9 mph - N/A   Clear
9:55 PM 65.7 °F 57.0 °F 74% 30.11 in 10.0 mi SE 8.1 mph - N/A   Clear
9:56 PM 65.7 °F 57.0 °F 74% 30.11 in 10.0 mi SE 8.1 mph - N/A   Clear
10:18 PM 66.4 °F 56.8 °F 71% 30.10 in 10.0 mi SE 6.9 mph - N/A   Clear
10:37 PM 65.3 °F 57.2 °F 75% 30.10 in 10.0 mi SE 8.1 mph - N/A   Clear
10:55 PM 66.0 °F 57.2 °F 73% 30.11 in 10.0 mi SSE 5.8 mph - N/A   Clear
11:15 PM 66.0 °F 57.4 °F 74% 30.11 in 10.0 mi SSE 5.8 mph - N/A   Clear
11:35 PM 65.7 °F 57.6 °F 75% 30.11 in 10.0 mi SE 6.9 mph - N/A   Clear
11:58 PM 67.3 °F 56.5 °F 68% 30.11 in 10.0 mi SSE 5.8 mph - N/A   Clear